Valentine, NE

10:21 PM CST on December 11, 2019 (GMT -0600)
Miller Field

Weather History for KVTN - October, 2019

Change the Weather History Date:

Thursday, October 10, 2019

  Actual Average Record
Temperature  
Mean Temperature 32 °F 51 °F  
Max Temperature 37 °F 66 °F 95 °F (1910)
Min Temperature 28 °F 36 °F 10 °F (1919)
Degree Days  
Heating Degree Days 32 14  
Month to date heating degree days 162 126  
Since 1 July heating degree days 215 311  
Cooling Degree Days 0 0  
Month to date cooling degree days 0 1  
Year to date cooling degree days 930 818  
Moisture  
Dew Point 26 °F    
Average Humidity 81    
Maximum Humidity 89    
Minimum Humidity 72    
Precipitation  
Precipitation 0.25 in 0.04 in 1.00 in (1912)
Month to date precipitation 0.65 0.49  
Year to date precipitation 27.55 18.24  
Snow  
Snow 1.90 in 0.00 in 1.10 in (1977)
Month to date snowfall 1.9 0.3  
Since 1 July snowfall 1.9 1.0  
Since 1 September snowfall 1.9 1.0  
Snow Depth 1.00 in    
Sea Level Pressure  
Sea Level Pressure 30.09 in    
Wind  
Wind Speed 17 mph ()    
Max Wind Speed 31 mph    
Max Gust Speed 48 mph    
Visibility 4.5 miles    
Events Rain , Snow , Thunderstorm    
T = Trace of Precipitation, MM = Missing Value Source: Averaged Metar Reports

Daily Weather History Graph

Daily Weather History Graph

Search for Another Location

Airport or City:

Astronomy

Oct. 10, 2019 Rise Set
Actual Time 7:49 AM CDT 7:08 PM CDT
Civil Twilight 7:21 AM CDT 7:36 PM CDT
Nautical Twilight 6:48 AM CDT 8:09 PM CDT
Astronomical Twilight 6:15 AM CDT 8:42 PM CDT
Moon 6:16 PM CDT (10/10) 4:28 AM CDT (10/10)
Length of Visible Light 12h 15m
Length of Day
11h 18m
Waxing Gibbous, 91% of the Moon is Illuminated
Oct 10
Waxing Gibbous
Oct 13
Full
Oct 21
Last Quarter
Oct 27
New
Nov 4
First Quarter

Hourly Weather History & Observations

Time (CDT) Temp. Windchill Dew Point Humidity Pressure Visibility Wind Dir Wind Speed Gust Speed Precip Events Conditions
12:52 AM 37.0 °F 28.5 °F 34.0 °F 89% 30.01 in 3.0 mi NNW 13.8 mph 24.2 mph 0.00 in Rain Light Rain
1:06 AM 37.0 °F 26.4 °F 33.1 °F 86% 29.96 in 8.0 mi North 20.7 mph 36.8 mph 0.01 in   Overcast
1:32 AM 37.0 °F 27.4 °F 33.1 °F 86% 29.96 in 3.0 mi NNW 17.3 mph 29.9 mph 0.01 in   Overcast
1:52 AM 36.0 °F 26.7 °F 32.0 °F 86% 30.02 in 4.0 mi NNW 15.0 mph 27.6 mph 0.01 in   Overcast
2:22 AM 36.0 °F 25.6 °F 32.0 °F 86% 29.94 in 2.5 mi North 18.4 mph 28.8 mph 0.02 in Snow Light Snow
2:38 AM 35.1 °F 24.1 °F 32.0 °F 89% 29.94 in 3.0 mi NNW 19.6 mph 33.4 mph 0.02 in Snow Light Snow
2:47 AM 35.6 °F 24.5 °F 30.2 °F 81% 29.92 in 3.0 mi North 20.7 mph 31.1 mph 0.03 in   Overcast
2:52 AM 35.1 °F 23.5 °F 32.0 °F 89% 29.98 in 4.0 mi NNW 21.9 mph 35.7 mph 0.03 in   Overcast
3:08 AM 35.1 °F 25.2 °F 30.9 °F 85% 29.97 in 4.0 mi NNW 16.1 mph 34.5 mph 0.01 in Rain , Thunderstorm Thunderstorms and Rain
3:16 AM 35.1 °F 25.2 °F 30.9 °F 85% 29.98 in 3.0 mi NW 16.1 mph 32.2 mph 0.06 in Rain , Thunderstorm Heavy Thunderstorms and Rain
3:27 AM 35.1 °F 24.8 °F 30.9 °F 85% 30.06 in 5.0 mi WNW 17.3 mph 26.5 mph 0.10 in Rain , Thunderstorm Heavy Rain
3:41 AM 35.1 °F 25.5 °F 30.9 °F 85% 30.03 in 5.0 mi NW 15.0 mph 25.3 mph 0.13 in Rain Light Rain
3:52 AM 34.0 °F 22.7 °F 30.9 °F 89% 30.06 in 5.0 mi NW 19.6 mph 31.1 mph 0.13 in   Overcast
4:03 AM 34.0 °F 23.8 °F 30.0 °F 85% 30.01 in 4.0 mi NNW 16.1 mph 29.9 mph 0.00 in   Overcast
4:14 AM 34.0 °F 23.0 °F 30.0 °F 85% 30.01 in 4.0 mi NNW 18.4 mph 32.2 mph 0.00 in   Overcast
4:39 AM 34.0 °F 23.0 °F 28.9 °F 82% 30.01 in 9.0 mi NNW 18.4 mph 33.4 mph 0.00 in Rain Light Rain
4:52 AM 34.0 °F 22.4 °F 28.9 °F 82% 30.06 in 10.0 mi NNW 20.7 mph 29.9 mph 0.00 in   Overcast
5:41 AM 33.1 °F 21.5 °F 28.9 °F 85% 30.03 in 2.0 mi NNW 19.6 mph 33.4 mph 0.02 in   Overcast
5:45 AM 33.8 °F 21.6 °F 28.4 °F 81% 30.03 in 2.5 mi NNW 23.0 mph 33.4 mph N/A   Overcast
5:52 AM 33.1 °F 21.9 °F 28.9 °F 85% 30.09 in 6.0 mi NNW 18.4 mph 33.4 mph 0.02 in   Overcast
5:59 AM 33.1 °F 21.2 °F 28.9 °F 85% 30.03 in 4.0 mi NW 20.7 mph 32.2 mph 0.00 in Snow Light Snow
6:14 AM 32.0 °F 19.5 °F 27.0 °F 82% 30.03 in 8.0 mi NNW 21.9 mph 36.8 mph 0.00 in   Overcast
6:21 AM 32.0 °F 18.6 °F 27.0 °F 82% 30.03 in 10.0 mi NNW 25.3 mph 36.8 mph 0.00 in   Overcast
6:52 AM 30.9 °F 19.1 °F 26.1 °F 82% 30.09 in 6.0 mi NNW 18.4 mph 35.7 mph 0.00 in Snow Light Snow
7:08 AM 30.9 °F 18.4 °F 26.1 °F 82% 30.03 in 4.0 mi NNW 20.7 mph 35.7 mph 0.00 in Snow Light Snow
7:18 AM 30.0 °F 17.2 °F 26.1 °F 85% 30.04 in 2.5 mi NNW 20.7 mph 33.4 mph 0.01 in Snow Light Snow
7:35 AM 30.0 °F 18.7 °F 25.0 °F 82% 30.04 in 4.0 mi NNW 16.1 mph 35.7 mph 0.02 in Snow Light Snow
7:52 AM 30.0 °F 17.5 °F 25.0 °F 82% 30.11 in 4.0 mi NNW 19.6 mph 29.9 mph 0.02 in Snow Light Snow
8:52 AM 30.0 °F 18.7 °F 24.1 °F 79% 30.12 in 10.0 mi NNW 16.1 mph 33.4 mph 0.00 in   Overcast
9:52 AM 30.0 °F 17.2 °F 25.0 °F 82% 30.14 in 10.0 mi NNW 20.7 mph 39.1 mph 0.00 in   Overcast
10:52 AM 30.0 °F 16.3 °F 25.0 °F 82% 30.15 in 10.0 mi NNW 24.2 mph 35.7 mph N/A   Overcast
11:52 AM 30.0 °F 17.5 °F 25.0 °F 82% 30.15 in 7.0 mi NNW 19.6 mph 36.8 mph N/A   Overcast
12:52 PM 30.0 °F 16.6 °F 25.0 °F 82% 30.16 in 4.0 mi NW 23.0 mph 34.5 mph N/A   Haze
1:30 PM 30.0 °F 16.9 °F 24.1 °F 79% 30.09 in 5.0 mi NNW 21.9 mph 38.0 mph 0.00 in Snow Light Snow
1:52 PM 30.0 °F 16.6 °F 23.0 °F 75% 30.17 in 10.0 mi NW 23.0 mph 42.6 mph 0.00 in   Overcast
2:52 PM 30.9 °F 18.4 °F 24.1 °F 76% 30.13 in 6.0 mi NNW 20.7 mph 36.8 mph 0.00 in   Overcast
3:14 PM 30.9 °F 18.4 °F 25.0 °F 79% 30.07 in 1.8 mi NNW 20.7 mph 35.7 mph 0.00 in Snow Light Snow
3:39 PM 30.0 °F 18.7 °F 25.0 °F 82% 30.07 in 0.8 mi NW 16.1 mph 33.4 mph 0.00 in Snow Light Snow
3:52 PM 30.0 °F 16.9 °F 24.1 °F 79% 30.17 in 0.5 mi NW 21.9 mph 36.8 mph 0.01 in Snow Snow
4:01 PM 30.0 °F 16.0 °F 24.1 °F 79% 30.10 in 1.2 mi NW 25.3 mph 34.5 mph 0.00 in Snow Light Snow
4:14 PM 30.0 °F 18.3 °F 23.0 °F 75% 30.09 in 2.5 mi NW 17.3 mph 40.3 mph 0.01 in Snow Light Snow
4:31 PM 30.0 °F 16.6 °F 23.0 °F 75% 30.08 in 1.0 mi NW 23.0 mph 36.8 mph 0.01 in Snow Light Snow
4:39 PM 30.0 °F 17.5 °F 23.0 °F 75% 30.09 in 0.5 mi NW 19.6 mph 36.8 mph 0.01 in Snow Snow
4:52 PM 30.0 °F 17.9 °F 24.1 °F 79% 30.17 in 0.8 mi NW 18.4 mph 36.8 mph 0.01 in Snow Light Snow
5:43 PM 28.9 °F 17.7 °F 24.1 °F 82% 30.11 in 1.2 mi NW 15.0 mph 31.1 mph 0.01 in Snow Light Snow
5:52 PM 28.9 °F 16.1 °F 24.1 °F 82% 30.20 in 0.8 mi NW 19.6 mph 33.4 mph 0.01 in Snow Light Snow
6:10 PM 28.9 °F 16.9 °F 24.1 °F 82% 30.12 in 1.2 mi NW 17.3 mph 29.9 mph 0.01 in Snow Light Snow
6:22 PM 28.9 °F 16.5 °F 23.0 °F 78% 30.13 in 3.0 mi NW 18.4 mph 31.1 mph 0.01 in Snow Light Snow
6:35 PM 28.9 °F 16.9 °F 23.0 °F 78% 30.14 in 2.0 mi NW 17.3 mph 31.1 mph 0.01 in Snow Light Snow
6:41 PM 28.9 °F 17.3 °F 23.0 °F 78% 30.14 in 1.8 mi NW 16.1 mph 28.8 mph 0.01 in Snow Light Snow
6:52 PM 28.9 °F 16.5 °F 23.0 °F 78% 30.23 in 1.5 mi NW 18.4 mph 29.9 mph 0.01 in Snow Light Snow
7:00 PM 28.9 °F 16.5 °F 23.0 °F 78% 30.14 in 2.0 mi NW 18.4 mph 29.9 mph 0.00 in Snow Light Snow
7:14 PM 28.9 °F 15.8 °F 23.0 °F 78% 30.13 in 4.0 mi NW 20.7 mph 33.4 mph 0.00 in Snow Light Snow
7:52 PM 28.9 °F 15.4 °F 23.0 °F 78% 30.22 in 4.0 mi NW 21.9 mph 35.7 mph 0.00 in Snow Light Snow
8:52 PM 28.9 °F 14.5 °F 21.9 °F 75% 30.23 in 6.0 mi NW 25.3 mph 38.0 mph 0.00 in   Overcast
9:11 PM 28.9 °F 16.1 °F 21.9 °F 75% 30.15 in 6.0 mi NW 19.6 mph 43.7 mph 0.00 in   Overcast
9:52 PM 28.9 °F 15.8 °F 21.0 °F 72% 30.25 in 8.0 mi NW 20.7 mph 34.5 mph 0.00 in   Overcast
9:59 PM 28.9 °F 15.4 °F 21.0 °F 72% 30.16 in 8.0 mi NW 21.9 mph 36.8 mph N/A   Overcast
10:52 PM 28.0 °F 15.3 °F 21.9 °F 78% 30.26 in 7.0 mi NW 18.4 mph 29.9 mph 0.00 in   Overcast
11:52 PM 28.9 °F 16.9 °F 21.0 °F 72% 30.26 in 10.0 mi NW 17.3 mph 31.1 mph N/A   Overcast